GFSNIL_prec_precacc6_057.txt.gz
Total_Precipitation_Accumulation
0.07 0.05 0.01 0.01 0.04 0.05 0.06 0.10 0.20 0.25 0.19 0.15 0.09 0.03 0.04 0.03 0.00 0.00 0.00 0.00 0.00 0.00
0.08 0.07 0.03 0.03 0.05 0.06 0.08 0.07 0.09 0.12 0.12 0.15 0.16 0.09 0.06 0.03 0.02 0.01 0.00 0.02 0.03 0.01
0.04 0.06 0.04 0.06 0.10 0.11 0.08 0.06 0.07 0.13 0.16 0.14 0.09 0.07 0.07 0.04 0.03 0.03 0.06 0.04 0.00 0.00
0.09 0.05 0.04 0.06 0.08 0.06 0.04 0.04 0.04 0.04 0.06 0.05 0.05 0.08 0.08 0.06 0.05 0.06 0.02 0.00 0.00 0.00
0.04 0.07 0.07 0.05 0.05 0.03 0.02 0.01 0.01 0.02 0.02 0.03 0.05 0.05 0.04 0.05 0.05 0.03 0.00 0.00 0.00 0.00
0.04 0.05 0.05 0.04 0.03 0.02 0.01 0.01 0.02 0.01 0.01 0.01 0.03 0.07 0.09 0.06 0.04 0.01 0.00 0.00 0.00 0.00
0.03 0.03 0.02 0.01 0.01 0.01 0.01 0.00 0.00 0.00 0.01 0.03 0.06 0.07 0.05 0.03 0.00 0.00 0.00 0.00 0.00 0.00
0.02 0.01 0.00 0.00 0.00 0.00 0.00 0.00 0.00 0.00 0.02 0.03 0.03 0.04 0.02 0.01 0.00 0.00 0.00 0.00 0.00 0.00
0.00 0.00 0.00 0.00 0.00 0.00 0.00 0.00 0.00 0.01 0.02 0.03 0.02 0.02 0.00 0.00 0.00 0.00 0.00 0.00 0.00 0.00
0.00 0.00 0.00 0.00 0.00 0.00 0.00 0.01 0.01 0.02 0.02 0.01 0.00 0.01 0.00 0.00 0.00 0.00 0.00 0.00 0.00 0.00
0.00 0.00 0.00 0.00 0.01 0.02 0.02 0.01 0.01 0.00 0.00 0.00 0.00 0.00 0.00 0.00 0.00 0.00 0.00 0.00 0.00 0.00
0.00 0.00 0.00 0.00 0.00 0.00 0.00 0.00 0.00 0.00 0.00 0.00 0.00 0.00 0.00 0.00 0.00 0.00 0.00 0.00 0.00 0.00
0.00 0.00 0.00 0.00 0.00 0.00 0.00 0.00 0.00 0.00 0.00 0.00 0.00 0.00 0.00 0.00 0.00 0.00 0.00 0.00 0.00 0.00
0.00 0.00 0.00 0.00 0.00 0.00 0.00 0.00 0.00 0.00 0.00 0.00 0.00 0.00 0.00 0.00 0.00 0.00 0.00 0.00 0.00 0.00

GFSNIL_prec_precacc6_060.txt.gz
Total_Precipitation_Accumulation
0.07 0.11 0.17 0.10 0.13 0.08 0.08 0.07 0.22 0.28 0.21 0.15 0.13 0.15 0.19 0.26 0.29 0.21 0.09 0.01 0.01 0.01
0.05 0.03 0.01 0.02 0.09 0.11 0.08 0.04 0.08 0.09 0.10 0.16 0.19 0.20 0.20 0.15 0.09 0.05 0.05 0.06 0.08 0.04
0.05 0.07 0.07 0.26 0.20 0.15 0.07 0.07 0.05 0.03 0.10 0.13 0.10 0.08 0.07 0.04 0.03 0.04 0.07 0.07 0.04 0.02
0.13 0.27 0.30 0.11 0.11 0.09 0.06 0.02 0.02 0.02 0.04 0.06 0.06 0.06 0.06 0.06 0.04 0.05 0.04 0.03 0.01 0.00
0.28 0.13 0.11 0.07 0.06 0.04 0.01 0.01 0.01 0.02 0.04 0.06 0.07 0.07 0.04 0.02 0.03 0.03 0.01 0.00 0.00 0.00
0.25 0.05 0.05 0.04 0.03 0.02 0.03 0.03 0.03 0.02 0.01 0.01 0.01 0.01 0.03 0.03 0.03 0.01 0.00 0.00 0.00 0.00
0.03 0.05 0.02 0.02 0.02 0.01 0.01 0.01 0.01 0.00 0.01 0.02 0.02 0.02 0.03 0.02 0.01 0.00 0.00 0.00 0.00 0.00
0.02 0.04 0.02 0.01 0.01 0.00 0.00 0.00 0.00 0.00 0.00 0.00 0.01 0.02 0.02 0.01 0.00 0.00 0.00 0.00 0.00 0.00
0.02 0.01 0.00 0.00 0.00 0.00 0.00 0.00 0.00 0.00 0.00 0.00 0.01 0.01 0.01 0.00 0.00 0.00 0.00 0.00 0.00 0.00
0.00 0.00 0.00 0.00 0.00 0.00 0.00 0.00 0.00 0.00 0.00 0.00 0.00 0.00 0.00 0.00 0.00 0.00 0.00 0.00 0.00 0.00
0.00 0.00 0.00 0.00 0.00 0.00 0.00 0.00 0.00 0.00 0.00 0.00 0.00 0.00 0.00 0.00 0.00 0.00 0.00 0.00 0.00 0.00
0.00 0.00 0.00 0.00 0.00 0.00 0.00 0.00 0.00 0.00 0.00 0.00 0.00 0.00 0.00 0.00 0.00 0.00 0.00 0.00 0.00 0.00
0.00 0.00 0.00 0.00 0.00 0.00 0.00 0.00 0.00 0.00 0.00 0.00 0.00 0.00 0.00 0.00 0.00 0.00 0.00 0.00 0.00 0.00
0.00 0.00 0.00 0.00 0.00 0.00 0.00 0.00 0.00 0.00 0.00 0.00 0.00 0.00 0.00 0.00 0.00 0.00 0.00 0.00 0.00 0.00

GFSNIL_prec_precacc6_063.txt.gz
Total_Precipitation_Accumulation
0.05 0.12 0.19 0.16 0.16 0.08 0.10 0.12 0.17 0.21 0.15 0.07 0.05 0.12 0.15 0.23 0.30 0.25 0.18 0.09 0.05 0.04
0.04 0.05 0.00 0.05 0.28 0.19 0.13 0.08 0.15 0.19 0.11 0.05 0.03 0.11 0.16 0.15 0.13 0.10 0.07 0.05 0.06 0.05
0.03 0.08 0.10 0.40 0.62 0.74 0.52 0.28 0.11 0.08 0.02 0.01 0.02 0.05 0.08 0.11 0.09 0.05 0.03 0.05 0.04 0.02
0.14 0.31 0.49 0.38 0.66 0.36 0.20 0.12 0.06 0.01 0.01 0.03 0.04 0.04 0.06 0.06 0.04 0.02 0.03 0.03 0.01 0.00
0.68 0.61 0.58 0.68 0.60 0.21 0.07 0.09 0.03 0.01 0.03 0.05 0.05 0.04 0.02 0.01 0.01 0.01 0.02 0.01 0.00 0.00
0.58 0.28 0.23 0.13 0.09 0.05 0.04 0.02 0.02 0.01 0.01 0.01 0.01 0.02 0.03 0.04 0.02 0.01 0.00 0.00 0.00 0.00
0.12 0.10 0.04 0.05 0.04 0.03 0.01 0.01 0.01 0.01 0.00 0.01 0.02 0.03 0.02 0.01 0.01 0.00 0.00 0.00 0.00 0.00
0.03 0.05 0.04 0.03 0.02 0.01 0.00 0.00 0.00 0.00 0.00 0.01 0.00 0.00 0.00 0.00 0.00 0.00 0.00 0.00 0.00 0.00
0.02 0.01 0.02 0.01 0.00 0.00 0.00 0.00 0.00 0.00 0.00 0.00 0.00 0.01 0.00 0.00 0.00 0.00 0.00 0.00 0.00 0.00
0.01 0.01 0.01 0.00 0.00 0.00 0.00 0.00 0.00 0.00 0.00 0.00 0.00 0.00 0.00 0.00 0.00 0.00 0.00 0.00 0.00 0.00
0.01 0.00 0.00 0.00 0.00 0.00 0.00 0.00 0.00 0.00 0.00 0.00 0.00 0.00 0.00 0.00 0.00 0.00 0.00 0.00 0.00 0.00
0.00 0.00 0.00 0.00 0.00 0.00 0.00 0.00 0.00 0.00 0.00 0.00 0.00 0.00 0.00 0.00 0.00 0.00 0.00 0.00 0.00 0.00
0.00 0.00 0.00 0.00 0.00 0.00 0.00 0.00 0.00 0.00 0.00 0.00 0.00 0.00 0.00 0.00 0.00 0.00 0.00 0.00 0.00 0.00
0.00 0.00 0.00 0.00 0.00 0.00 0.00 0.00 0.00 0.00 0.00 0.00 0.00 0.00 0.00 0.00 0.00 0.00 0.00 0.00 0.00 0.00

GFSNIL_prec_precacc6_066.txt.gz
Total_Precipitation_Accumulation
0.01 0.04 0.01 0.07 0.05 0.03 0.04 0.07 0.13 0.22 0.28 0.22 0.10 0.05 0.02 0.01 0.02 0.05 0.12 0.17 0.13 0.05
0.02 0.03 0.00 0.07 0.28 0.13 0.15 0.11 0.16 0.22 0.21 0.21 0.09 0.01 0.01 0.01 0.05 0.11 0.13 0.10 0.05 0.01
0.00 0.08 0.15 0.27 0.63 0.83 0.70 0.49 0.24 0.22 0.20 0.12 0.03 0.01 0.03 0.08 0.08 0.05 0.02 0.01 0.01 0.01
0.07 0.08 0.36 0.50 0.85 0.65 0.46 0.25 0.09 0.08 0.11 0.05 0.02 0.01 0.04 0.04 0.03 0.01 0.01 0.01 0.00 0.00
0.50 0.80 0.78 1.10 1.66 0.88 0.30 0.17 0.10 0.11 0.05 0.02 0.01 0.01 0.00 0.00 0.01 0.02 0.02 0.02 0.02 0.01
1.01 0.71 0.31 0.21 0.19 0.12 0.08 0.06 0.03 0.02 0.02 0.01 0.01 0.02 0.03 0.04 0.04 0.04 0.03 0.01 0.00 0.00
0.41 0.39 0.16 0.12 0.06 0.05 0.04 0.03 0.02 0.02 0.01 0.01 0.03 0.03 0.03 0.02 0.00 0.00 0.00 0.00 0.00 0.00
0.08 0.09 0.09 0.09 0.04 0.03 0.02 0.02 0.01 0.01 0.01 0.01 0.01 0.01 0.01 0.00 0.00 0.00 0.00 0.00 0.00 0.00
0.03 0.05 0.06 0.04 0.03 0.01 0.01 0.01 0.00 0.00 0.01 0.00 0.00 0.01 0.01 0.00 0.00 0.00 0.00 0.00 0.00 0.00
0.04 0.04 0.03 0.02 0.01 0.00 0.00 0.00 0.00 0.00 0.00 0.00 0.00 0.00 0.00 0.00 0.00 0.00 0.00 0.00 0.00 0.00
0.03 0.02 0.01 0.00 0.00 0.00 0.00 0.00 0.00 0.00 0.00 0.00 0.00 0.00 0.00 0.00 0.00 0.00 0.00 0.00 0.00 0.00
0.01 0.01 0.00 0.00 0.00 0.00 0.00 0.00 0.00 0.00 0.00 0.00 0.00 0.00 0.00 0.00 0.00 0.00 0.00 0.00 0.00 0.00
0.00 0.00 0.00 0.00 0.00 0.00 0.00 0.00 0.00 0.00 0.00 0.00 0.00 0.00 0.00 0.00 0.00 0.00 0.00 0.00 0.00 0.00
0.00 0.00 0.00 0.00 0.00 0.00 0.00 0.00 0.00 0.00 0.00 0.00 0.00 0.00 0.00 0.00 0.00 0.00 0.00 0.00 0.00 0.00

GFSNIL_prec_precacc6_069.txt.gz
Total_Precipitation_Accumulation
0.00 0.00 0.00 0.01 0.01 0.03 0.02 0.00 0.00 0.05 0.16 0.20 0.17 0.16 0.13 0.07 0.05 0.03 0.03 0.10 0.11 0.08
0.00 0.00 0.00 0.04 0.09 0.06 0.12 0.11 0.07 0.05 0.11 0.20 0.16 0.16 0.12 0.05 0.01 0.04 0.10 0.09 0.07 0.03
0.00 0.03 0.10 0.11 0.18 0.26 0.31 0.36 0.25 0.29 0.27 0.17 0.11 0.09 0.04 0.01 0.01 0.02 0.01 0.00 0.00 0.01
0.00 0.02 0.17 0.23 0.29 0.43 0.60 0.76 0.66 0.41 0.32 0.10 0.09 0.07 0.03 0.01 0.00 0.00 0.01 0.01 0.01 0.01
0.08 0.31 0.29 0.51 1.21 1.03 0.84 0.56 0.39 0.22 0.08 0.04 0.02 0.01 0.00 0.00 0.01 0.02 0.01 0.02 0.02 0.02
0.70 0.50 0.19 0.19 0.20 0.21 0.16 0.09 0.03 0.02 0.04 0.04 0.03 0.03 0.03 0.03 0.03 0.04 0.03 0.02 0.03 0.02
0.32 0.37 0.26 0.21 0.15 0.08 0.08 0.09 0.04 0.05 0.04 0.02 0.02 0.03 0.03 0.03 0.01 0.01 0.01 0.00 0.00 0.00
0.09 0.09 0.09 0.10 0.04 0.03 0.02 0.03 0.04 0.04 0.04 0.02 0.02 0.03 0.02 0.01 0.01 0.01 0.01 0.01 0.01 0.00
0.04 0.06 0.06 0.06 0.07 0.03 0.03 0.04 0.03 0.04 0.04 0.02 0.02 0.04 0.03 0.01 0.00 0.00 0.00 0.00 0.00 0.00
0.06 0.04 0.04 0.03 0.03 0.02 0.02 0.03 0.03 0.03 0.02 0.01 0.01 0.02 0.01 0.00 0.00 0.00 0.00 0.00 0.00 0.00
0.05 0.05 0.03 0.02 0.01 0.01 0.02 0.03 0.02 0.02 0.01 0.01 0.01 0.01 0.00 0.00 0.00 0.00 0.00 0.00 0.00 0.00
0.02 0.02 0.02 0.03 0.03 0.02 0.02 0.03 0.02 0.02 0.00 0.00 0.00 0.00 0.00 0.00 0.00 0.00 0.00 0.00 0.00 0.00
0.00 0.01 0.02 0.02 0.01 0.01 0.01 0.02 0.01 0.00 0.00 0.00 0.00 0.00 0.00 0.00 0.00 0.00 0.00 0.00 0.00 0.00
0.00 0.00 0.00 0.01 0.01 0.01 0.01 0.00 0.00 0.00 0.00 0.00 0.00 0.00 0.00 0.00 0.00 0.00 0.00 0.00 0.00 0.00

GFSNIL_prec_precacc6_075.txt.gz
Total_Precipitation_Accumulation
0.00 0.00 0.00 0.00 0.00 0.00 0.00 0.00 0.00 0.00 0.00 0.00 0.00 0.00 0.03 0.04 0.06 0.11 0.10 0.05 0.03 0.03
0.00 0.00 0.00 0.00 0.00 0.00 0.00 0.00 0.00 0.00 0.00 0.00 0.00 0.01 0.17 0.25 0.19 0.09 0.03 0.02 0.03 0.04
0.00 0.00 0.00 0.00 0.00 0.00 0.00 0.00 0.00 0.02 0.06 0.04 0.01 0.01 0.05 0.08 0.08 0.07 0.04 0.03 0.03 0.03
0.00 0.00 0.00 0.00 0.00 0.00 0.00 0.00 0.03 0.12 0.21 0.32 0.23 0.15 0.12 0.11 0.10 0.08 0.05 0.03 0.03 0.03
0.00 0.00 0.00 0.00 0.00 0.00 0.00 0.02 0.02 0.06 0.09 0.12 0.15 0.18 0.15 0.10 0.07 0.08 0.09 0.09 0.07 0.05
0.00 0.00 0.00 0.00 0.00 0.01 0.01 0.04 0.02 0.01 0.01 0.01 0.02 0.04 0.10 0.15 0.18 0.16 0.10 0.09 0.08 0.07
0.01 0.00 0.00 0.00 0.03 0.12 0.11 0.08 0.08 0.05 0.05 0.04 0.02 0.01 0.01 0.03 0.05 0.06 0.06 0.07 0.08 0.08
0.04 0.00 0.00 0.01 0.01 0.03 0.01 0.01 0.03 0.04 0.07 0.09 0.05 0.05 0.06 0.05 0.04 0.05 0.06 0.07 0.05 0.04
0.05 0.05 0.02 0.02 0.02 0.03 0.02 0.03 0.04 0.02 0.03 0.04 0.04 0.09 0.07 0.05 0.03 0.03 0.04 0.04 0.04 0.06
0.03 0.03 0.06 0.04 0.04 0.10 0.09 0.07 0.05 0.05 0.05 0.05 0.05 0.10 0.06 0.06 0.03 0.05 0.04 0.04 0.03 0.02
0.01 0.02 0.02 0.03 0.02 0.05 0.08 0.07 0.06 0.05 0.07 0.08 0.09 0.11 0.06 0.05 0.01 0.03 0.03 0.03 0.03 0.02
0.01 0.01 0.02 0.02 0.04 0.03 0.04 0.06 0.05 0.04 0.04 0.06 0.09 0.11 0.06 0.05 0.03 0.05 0.05 0.05 0.03 0.01
0.00 0.00 0.01 0.01 0.01 0.01 0.03 0.04 0.05 0.06 0.05 0.10 0.07 0.12 0.08 0.08 0.06 0.08 0.06 0.02 0.01 0.02
0.01 0.01 0.02 0.02 0.01 0.02 0.03 0.04 0.05 0.05 0.05 0.08 0.09 0.11 0.11 0.09 0.07 0.06 0.02 0.00 0.00 0.00

GFSNIL_prec_precacc6_078.txt.gz
Total_Precipitation_Accumulation
0.00 0.00 0.00 0.00 0.00 0.00 0.00 0.00 0.00 0.00 0.01 0.00 0.02 0.03 0.05 0.04 0.03 0.02 0.02 0.02 0.02 0.02
0.00 0.00 0.00 0.00 0.00 0.00 0.00 0.00 0.00 0.00 0.01 0.00 0.00 0.00 0.01 0.01 0.01 0.02 0.03 0.02 0.01 0.02
0.00 0.00 0.00 0.00 0.00 0.00 0.00 0.00 0.00 0.00 0.00 0.00 0.00 0.00 0.00 0.00 0.02 0.05 0.04 0.04 0.03 0.03
0.00 0.00 0.00 0.00 0.00 0.00 0.00 0.00 0.00 0.00 0.00 0.04 0.07 0.08 0.07 0.05 0.04 0.05 0.05 0.05 0.05 0.06
0.00 0.00 0.00 0.00 0.00 0.00 0.00 0.00 0.00 0.00 0.01 0.03 0.05 0.09 0.10 0.08 0.06 0.07 0.11 0.14 0.19 0.22
0.00 0.00 0.00 0.00 0.00 0.00 0.00 0.00 0.00 0.00 0.00 0.00 0.00 0.02 0.09 0.13 0.14 0.17 0.17 0.19 0.21 0.25
0.00 0.00 0.00 0.00 0.00 0.00 0.00 0.00 0.00 0.00 0.00 0.01 0.01 0.00 0.00 0.02 0.02 0.03 0.07 0.14 0.18 0.18
0.01 0.00 0.00 0.00 0.00 0.00 0.00 0.00 0.00 0.00 0.01 0.03 0.05 0.05 0.05 0.04 0.03 0.01 0.02 0.04 0.05 0.04
0.00 0.00 0.00 0.00 0.01 0.00 0.00 0.00 0.01 0.01 0.00 0.01 0.02 0.03 0.02 0.02 0.01 0.02 0.03 0.04 0.04 0.06
0.00 0.00 0.00 0.01 0.01 0.02 0.03 0.01 0.01 0.02 0.02 0.01 0.02 0.04 0.03 0.03 0.02 0.04 0.05 0.05 0.05 0.05
0.00 0.00 0.00 0.01 0.00 0.01 0.02 0.03 0.03 0.03 0.05 0.05 0.06 0.07 0.05 0.06 0.02 0.02 0.04 0.05 0.05 0.05
0.00 0.00 0.00 0.00 0.00 0.00 0.01 0.02 0.02 0.03 0.03 0.04 0.05 0.10 0.07 0.08 0.04 0.07 0.08 0.08 0.11 0.13
0.00 0.00 0.00 0.00 0.00 0.01 0.02 0.03 0.02 0.02 0.02 0.08 0.05 0.13 0.10 0.09 0.06 0.09 0.11 0.10 0.10 0.13
0.01 0.01 0.02 0.04 0.02 0.01 0.01 0.01 0.02 0.02 0.04 0.05 0.08 0.12 0.13 0.12 0.08 0.08 0.08 0.08 0.07 0.07

GFSNIL_prec_precacc6_084.txt.gz
Total_Precipitation_Accumulation
0.01 0.00 0.00 0.00 0.00 0.00 0.00 0.00 0.00 0.00 0.00 0.00 0.00 0.00 0.06 0.12 0.08 0.12 0.10 0.11 0.08 0.06
0.01 0.00 0.00 0.00 0.00 0.00 0.00 0.00 0.00 0.00 0.00 0.00 0.00 0.00 0.02 0.10 0.06 0.06 0.07 0.08 0.10 0.07
0.00 0.01 0.00 0.00 0.00 0.00 0.00 0.00 0.00 0.00 0.00 0.00 0.00 0.01 0.01 0.02 0.04 0.05 0.05 0.08 0.07 0.07
0.00 0.00 0.00 0.00 0.00 0.00 0.00 0.00 0.00 0.00 0.00 0.00 0.00 0.01 0.01 0.01 0.01 0.02 0.04 0.05 0.05 0.03
0.00 0.00 0.00 0.00 0.00 0.00 0.00 0.00 0.00 0.00 0.00 0.00 0.00 0.00 0.00 0.00 0.00 0.01 0.01 0.01 0.02 0.01
0.00 0.00 0.00 0.00 0.00 0.00 0.00 0.00 0.00 0.00 0.00 0.00 0.00 0.00 0.00 0.00 0.00 0.00 0.00 0.00 0.01 0.01
0.00 0.00 0.00 0.00 0.00 0.00 0.00 0.00 0.00 0.00 0.00 0.00 0.00 0.00 0.00 0.00 0.00 0.00 0.00 0.00 0.01 0.01
0.01 0.00 0.00 0.00 0.00 0.00 0.00 0.00 0.00 0.00 0.00 0.00 0.00 0.00 0.00 0.00 0.00 0.00 0.00 0.00 0.00 0.00
0.00 0.00 0.00 0.01 0.01 0.00 0.00 0.00 0.00 0.00 0.00 0.00 0.00 0.00 0.00 0.00 0.00 0.00 0.00 0.00 0.00 0.00
0.00 0.00 0.00 0.00 0.00 0.00 0.03 0.01 0.00 0.00 0.00 0.00 0.00 0.00 0.00 0.00 0.00 0.00 0.00 0.00 0.00 0.00
0.00 0.00 0.00 0.00 0.00 0.00 0.01 0.01 0.01 0.01 0.01 0.00 0.00 0.00 0.01 0.02 0.01 0.00 0.00 0.00 0.00 0.02
0.00 0.00 0.00 0.00 0.00 0.00 0.00 0.00 0.00 0.02 0.03 0.02 0.02 0.03 0.03 0.02 0.01 0.01 0.01 0.02 0.03 0.06
0.00 0.00 0.00 0.00 0.00 0.00 0.00 0.00 0.00 0.01 0.02 0.02 0.02 0.04 0.04 0.04 0.01 0.01 0.02 0.04 0.08 0.20
0.00 0.00 0.00 0.00 0.00 0.00 0.00 0.00 0.02 0.02 0.01 0.03 0.06 0.07 0.07 0.05 0.03 0.03 0.07 0.11 0.13 0.19

GFSNIL_prec_precacc6_087.txt.gz
Total_Precipitation_Accumulation
0.00 0.00 0.00 0.00 0.00 0.00 0.00 0.00 0.00 0.00 0.00 0.00 0.00 0.00 0.01 0.06 0.05 0.08 0.08 0.08 0.06 0.04
0.01 0.00 0.00 0.00 0.00 0.00 0.00 0.00 0.00 0.00 0.00 0.00 0.00 0.00 0.00 0.05 0.03 0.03 0.04 0.02 0.06 0.03
0.00 0.00 0.00 0.00 0.00 0.00 0.00 0.00 0.00 0.00 0.00 0.00 0.00 0.00 0.00 0.00 0.02 0.02 0.02 0.04 0.04 0.05
0.00 0.00 0.00 0.00 0.00 0.00 0.00 0.00 0.00 0.00 0.00 0.00 0.00 0.00 0.00 0.00 0.00 0.01 0.01 0.02 0.03 0.01
0.00 0.00 0.00 0.00 0.00 0.00 0.00 0.00 0.00 0.00 0.00 0.00 0.00 0.00 0.00 0.00 0.00 0.00 0.00 0.01 0.02 0.00
0.00 0.00 0.00 0.00 0.00 0.00 0.00 0.00 0.00 0.00 0.00 0.00 0.00 0.00 0.00 0.00 0.00 0.00 0.00 0.00 0.01 0.01
0.00 0.00 0.00 0.00 0.00 0.00 0.00 0.00 0.00 0.00 0.00 0.00 0.00 0.00 0.00 0.00 0.00 0.00 0.00 0.00 0.00 0.00
0.00 0.00 0.00 0.00 0.00 0.00 0.00 0.00 0.00 0.00 0.00 0.00 0.00 0.00 0.00 0.00 0.00 0.00 0.00 0.00 0.00 0.00
0.00 0.00 0.00 0.00 0.00 0.00 0.00 0.00 0.00 0.00 0.00 0.00 0.00 0.00 0.00 0.00 0.00 0.00 0.00 0.00 0.00 0.00
0.01 0.00 0.00 0.00 0.00 0.00 0.02 0.01 0.00 0.00 0.00 0.00 0.00 0.00 0.00 0.00 0.00 0.00 0.00 0.00 0.00 0.00
0.01 0.02 0.03 0.00 0.00 0.00 0.00 0.01 0.01 0.01 0.01 0.00 0.00 0.00 0.00 0.01 0.01 0.00 0.01 0.00 0.00 0.00
0.01 0.03 0.04 0.01 0.00 0.00 0.00 0.00 0.00 0.02 0.01 0.00 0.01 0.01 0.00 0.00 0.00 0.00 0.00 0.00 0.00 0.01
0.05 0.05 0.04 0.03 0.00 0.00 0.00 0.00 0.00 0.00 0.00 0.01 0.01 0.01 0.01 0.01 0.01 0.01 0.02 0.03 0.05 0.14
0.03 0.07 0.05 0.04 0.03 0.03 0.05 0.03 0.00 0.00 0.01 0.02 0.04 0.05 0.07 0.04 0.03 0.04 0.07 0.09 0.11 0.15

GFSNIL_prec_precacc6_090.txt.gz
Total_Precipitation_Accumulation
0.00 0.00 0.00 0.00 0.00 0.00 0.00 0.00 0.00 0.00 0.00 0.00 0.00 0.00 0.00 0.01 0.02 0.03 0.03 0.03 0.03 0.02
0.00 0.00 0.00 0.00 0.00 0.00 0.00 0.00 0.00 0.00 0.00 0.00 0.00 0.00 0.00 0.00 0.00 0.00 0.00 0.00 0.00 0.00
0.00 0.00 0.00 0.00 0.00 0.00 0.00 0.00 0.00 0.00 0.00 0.00 0.00 0.00 0.00 0.00 0.00 0.00 0.01 0.02 0.01 0.00
0.00 0.00 0.00 0.00 0.00 0.00 0.00 0.00 0.00 0.00 0.00 0.00 0.00 0.00 0.00 0.00 0.00 0.00 0.00 0.00 0.01 0.00
0.00 0.00 0.00 0.00 0.00 0.00 0.00 0.00 0.00 0.00 0.00 0.00 0.00 0.00 0.00 0.00 0.00 0.00 0.00 0.00 0.00 0.00
0.00 0.00 0.00 0.00 0.00 0.00 0.00 0.00 0.00 0.00 0.00 0.00 0.00 0.00 0.00 0.00 0.00 0.00 0.00 0.00 0.00 0.00
0.00 0.00 0.00 0.00 0.00 0.00 0.00 0.00 0.00 0.00 0.00 0.00 0.00 0.00 0.00 0.00 0.00 0.00 0.00 0.00 0.00 0.00
0.00 0.00 0.00 0.00 0.00 0.00 0.00 0.00 0.00 0.00 0.00 0.00 0.00 0.00 0.00 0.00 0.00 0.00 0.00 0.00 0.00 0.00
0.01 0.02 0.02 0.01 0.00 0.00 0.00 0.00 0.00 0.00 0.00 0.01 0.00 0.00 0.00 0.00 0.00 0.00 0.00 0.00 0.00 0.00
0.07 0.06 0.04 0.05 0.03 0.01 0.01 0.00 0.00 0.00 0.00 0.00 0.00 0.00 0.00 0.00 0.00 0.00 0.00 0.00 0.00 0.00
0.07 0.08 0.09 0.05 0.03 0.02 0.03 0.01 0.01 0.01 0.01 0.00 0.00 0.01 0.01 0.00 0.00 0.00 0.00 0.00 0.00 0.00
0.07 0.10 0.13 0.08 0.04 0.02 0.02 0.04 0.03 0.03 0.02 0.01 0.01 0.01 0.02 0.01 0.00 0.00 0.00 0.00 0.00 0.00
0.07 0.10 0.11 0.12 0.11 0.08 0.05 0.07 0.08 0.05 0.03 0.02 0.03 0.03 0.03 0.01 0.01 0.01 0.02 0.01 0.01 0.05
0.03 0.08 0.07 0.10 0.11 0.10 0.14 0.13 0.07 0.02 0.02 0.02 0.04 0.05 0.08 0.05 0.02 0.02 0.03 0.05 0.06 0.08

GFSNIL_prec_precacc6_093.txt.gz
Total_Precipitation_Accumulation
0.00 0.00 0.00 0.00 0.00 0.00 0.00 0.00 0.00 0.00 0.00 0.00 0.00 0.02 0.01 0.01 0.00 0.00 0.00 0.01 0.01 0.01
0.00 0.00 0.00 0.00 0.00 0.00 0.00 0.00 0.00 0.00 0.00 0.00 0.00 0.01 0.02 0.01 0.00 0.00 0.00 0.00 0.00 0.00
0.00 0.00 0.00 0.00 0.00 0.00 0.00 0.00 0.00 0.00 0.00 0.00 0.00 0.00 0.01 0.01 0.00 0.00 0.00 0.00 0.01 0.01
0.00 0.00 0.00 0.00 0.00 0.00 0.00 0.00 0.00 0.00 0.00 0.00 0.00 0.00 0.00 0.00 0.00 0.00 0.00 0.00 0.00 0.00
0.00 0.00 0.00 0.00 0.00 0.00 0.00 0.00 0.00 0.00 0.00 0.00 0.00 0.00 0.00 0.00 0.00 0.00 0.00 0.00 0.00 0.00
0.00 0.00 0.00 0.00 0.00 0.00 0.00 0.00 0.00 0.00 0.00 0.00 0.00 0.00 0.00 0.00 0.00 0.00 0.00 0.00 0.00 0.00
0.00 0.00 0.00 0.00 0.00 0.00 0.00 0.00 0.00 0.00 0.00 0.00 0.00 0.00 0.00 0.00 0.00 0.00 0.00 0.00 0.00 0.00
0.02 0.00 0.00 0.00 0.00 0.00 0.00 0.00 0.00 0.00 0.00 0.00 0.00 0.00 0.00 0.00 0.00 0.00 0.00 0.00 0.00 0.00
0.09 0.07 0.04 0.03 0.01 0.00 0.00 0.00 0.00 0.00 0.00 0.01 0.00 0.00 0.00 0.00 0.00 0.00 0.00 0.00 0.00 0.00
0.11 0.11 0.11 0.12 0.07 0.07 0.06 0.03 0.03 0.02 0.00 0.00 0.00 0.00 0.00 0.00 0.00 0.00 0.00 0.00 0.00 0.00
0.07 0.06 0.08 0.09 0.09 0.10 0.10 0.07 0.05 0.06 0.06 0.04 0.03 0.02 0.01 0.00 0.00 0.00 0.00 0.00 0.00 0.00
0.07 0.09 0.10 0.09 0.06 0.05 0.05 0.08 0.09 0.11 0.13 0.09 0.05 0.08 0.07 0.03 0.00 0.00 0.00 0.00 0.00 0.00
0.03 0.05 0.08 0.10 0.13 0.12 0.07 0.07 0.10 0.09 0.09 0.09 0.07 0.11 0.09 0.05 0.02 0.03 0.02 0.01 0.00 0.01
0.00 0.01 0.02 0.06 0.08 0.09 0.11 0.14 0.14 0.11 0.09 0.08 0.08 0.08 0.10 0.08 0.07 0.08 0.08 0.10 0.09 0.06

GFSNIL_prec_precacc6_096.txt.gz
Total_Precipitation_Accumulation
0.00 0.00 0.00 0.00 0.00 0.00 0.00 0.00 0.00 0.00 0.00 0.01 0.03 0.07 0.13 0.08 0.07 0.05 0.02 0.01 0.00 0.00
0.00 0.00 0.00 0.00 0.00 0.00 0.00 0.00 0.00 0.00 0.00 0.00 0.00 0.02 0.02 0.02 0.01 0.01 0.00 0.00 0.00 0.00
0.00 0.00 0.00 0.00 0.00 0.00 0.00 0.00 0.00 0.00 0.00 0.00 0.00 0.00 0.02 0.01 0.00 0.00 0.00 0.00 0.00 0.01
0.00 0.00 0.00 0.00 0.00 0.00 0.00 0.00 0.00 0.00 0.00 0.00 0.00 0.00 0.00 0.01 0.01 0.01 0.00 0.00 0.00 0.00
0.00 0.00 0.00 0.00 0.00 0.00 0.00 0.00 0.00 0.00 0.00 0.00 0.00 0.00 0.00 0.00 0.00 0.01 0.01 0.00 0.00 0.00
0.00 0.00 0.00 0.00 0.00 0.00 0.00 0.00 0.00 0.00 0.00 0.00 0.00 0.00 0.00 0.00 0.00 0.00 0.00 0.00 0.00 0.00
0.01 0.00 0.00 0.00 0.00 0.00 0.00 0.00 0.00 0.00 0.00 0.00 0.00 0.00 0.00 0.00 0.00 0.00 0.00 0.00 0.00 0.00
0.03 0.01 0.00 0.00 0.00 0.00 0.00 0.00 0.00 0.00 0.00 0.00 0.00 0.00 0.00 0.00 0.00 0.00 0.00 0.00 0.00 0.00
0.09 0.06 0.04 0.03 0.02 0.01 0.00 0.00 0.00 0.00 0.00 0.00 0.00 0.00 0.00 0.00 0.00 0.00 0.00 0.00 0.00 0.00
0.06 0.06 0.07 0.06 0.04 0.07 0.06 0.03 0.03 0.02 0.01 0.00 0.00 0.00 0.00 0.00 0.00 0.00 0.00 0.00 0.00 0.00
0.01 0.01 0.03 0.05 0.06 0.08 0.07 0.06 0.05 0.08 0.11 0.09 0.07 0.05 0.02 0.01 0.01 0.01 0.00 0.00 0.00 0.00
0.02 0.01 0.01 0.02 0.02 0.04 0.05 0.05 0.07 0.11 0.15 0.12 0.10 0.16 0.07 0.04 0.03 0.05 0.03 0.01 0.00 0.00
0.00 0.00 0.00 0.00 0.02 0.05 0.03 0.02 0.04 0.09 0.13 0.14 0.08 0.15 0.12 0.10 0.08 0.10 0.06 0.05 0.06 0.15
0.00 0.00 0.00 0.00 0.00 0.01 0.02 0.04 0.09 0.13 0.12 0.10 0.10 0.10 0.11 0.09 0.11 0.18 0.19 0.16 0.13 0.11

GFSNIL_prec_precacc6_099.txt.gz
Total_Precipitation_Accumulation
0.00 0.00 0.00 0.00 0.00 0.00 0.00 0.00 0.00 0.01 0.01 0.01 0.04 0.09 0.18 0.18 0.11 0.10 0.09 0.07 0.06 0.04
0.00 0.00 0.00 0.00 0.00 0.00 0.00 0.00 0.00 0.00 0.00 0.00 0.00 0.01 0.03 0.03 0.04 0.05 0.07 0.06 0.05 0.03
0.00 0.00 0.00 0.00 0.00 0.00 0.00 0.00 0.00 0.00 0.00 0.01 0.00 0.00 0.01 0.01 0.00 0.01 0.03 0.04 0.03 0.01
0.00 0.00 0.00 0.00 0.00 0.00 0.00 0.00 0.00 0.00 0.00 0.00 0.00 0.00 0.00 0.01 0.01 0.01 0.00 0.00 0.00 0.00
0.00 0.00 0.00 0.00 0.00 0.00 0.00 0.00 0.00 0.00 0.00 0.00 0.00 0.00 0.00 0.00 0.00 0.01 0.01 0.00 0.00 0.00
0.00 0.00 0.00 0.00 0.00 0.00 0.00 0.00 0.00 0.00 0.00 0.00 0.00 0.00 0.00 0.00 0.00 0.00 0.00 0.01 0.01 0.00
0.00 0.00 0.00 0.00 0.00 0.00 0.00 0.00 0.00 0.00 0.00 0.00 0.00 0.00 0.00 0.00 0.00 0.00 0.00 0.00 0.00 0.00
0.01 0.01 0.00 0.00 0.00 0.00 0.00 0.00 0.00 0.00 0.00 0.00 0.00 0.00 0.00 0.00 0.00 0.00 0.00 0.00 0.00 0.00
0.03 0.02 0.01 0.01 0.00 0.00 0.00 0.00 0.00 0.00 0.00 0.00 0.00 0.00 0.00 0.00 0.00 0.00 0.00 0.00 0.00 0.00
0.04 0.04 0.02 0.01 0.01 0.01 0.01 0.00 0.00 0.00 0.00 0.00 0.00 0.00 0.00 0.00 0.00 0.00 0.00 0.00 0.00 0.00
0.02 0.02 0.03 0.03 0.02 0.03 0.02 0.01 0.01 0.03 0.05 0.04 0.05 0.05 0.02 0.02 0.02 0.02 0.01 0.01 0.00 0.00
0.00 0.00 0.01 0.01 0.02 0.04 0.04 0.04 0.05 0.07 0.08 0.08 0.09 0.13 0.03 0.03 0.04 0.06 0.05 0.03 0.03 0.05
0.00 0.00 0.00 0.00 0.00 0.00 0.01 0.03 0.06 0.10 0.11 0.14 0.05 0.11 0.06 0.07 0.09 0.10 0.07 0.07 0.10 0.24
0.00 0.00 0.00 0.00 0.00 0.00 0.00 0.00 0.01 0.05 0.05 0.06 0.08 0.08 0.08 0.04 0.06 0.13 0.18 0.15 0.11 0.13

GFSNIL_prec_precacc6_102.txt.gz
Total_Precipitation_Accumulation
0.00 0.00 0.00 0.00 0.00 0.00 0.00 0.00 0.01 0.03 0.04 0.01 0.02 0.05 0.10 0.18 0.23 0.19 0.18 0.10 0.07 0.05
0.00 0.00 0.00 0.00 0.00 0.00 0.00 0.00 0.00 0.01 0.03 0.02 0.01 0.02 0.03 0.04 0.05 0.08 0.12 0.10 0.06 0.06
0.00 0.00 0.00 0.00 0.00 0.00 0.00 0.00 0.00 0.00 0.01 0.01 0.01 0.01 0.01 0.02 0.03 0.05 0.08 0.09 0.09 0.07
0.00 0.00 0.00 0.00 0.00 0.00 0.00 0.00 0.00 0.00 0.00 0.00 0.00 0.00 0.01 0.01 0.01 0.02 0.02 0.03 0.06 0.05
0.00 0.00 0.00 0.00 0.00 0.00 0.00 0.00 0.00 0.00 0.00 0.00 0.00 0.00 0.00 0.00 0.00 0.00 0.00 0.00 0.00 0.01
0.00 0.00 0.00 0.00 0.00 0.00 0.00 0.00 0.00 0.00 0.00 0.00 0.00 0.00 0.00 0.00 0.00 0.00 0.00 0.00 0.01 0.01
0.00 0.00 0.00 0.00 0.00 0.00 0.00 0.00 0.00 0.00 0.00 0.00 0.00 0.00 0.00 0.00 0.00 0.00 0.00 0.00 0.00 0.01
0.01 0.00 0.00 0.00 0.00 0.00 0.00 0.00 0.00 0.00 0.00 0.00 0.00 0.00 0.00 0.00 0.00 0.00 0.00 0.00 0.00 0.00
0.04 0.02 0.00 0.00 0.00 0.00 0.00 0.00 0.00 0.00 0.00 0.00 0.00 0.00 0.00 0.00 0.00 0.00 0.00 0.00 0.00 0.00
0.07 0.07 0.07 0.05 0.02 0.01 0.00 0.00 0.00 0.00 0.00 0.00 0.00 0.00 0.00 0.00 0.00 0.00 0.00 0.00 0.00 0.00
0.04 0.04 0.05 0.06 0.05 0.06 0.03 0.01 0.01 0.01 0.01 0.02 0.02 0.02 0.01 0.02 0.01 0.01 0.01 0.01 0.01 0.02
0.09 0.05 0.03 0.02 0.02 0.04 0.04 0.04 0.05 0.05 0.06 0.07 0.07 0.07 0.02 0.02 0.01 0.01 0.03 0.07 0.09 0.08
0.06 0.04 0.01 0.01 0.01 0.01 0.01 0.03 0.04 0.05 0.06 0.10 0.04 0.08 0.02 0.02 0.03 0.04 0.05 0.05 0.07 0.16
0.01 0.00 0.00 0.00 0.00 0.00 0.00 0.00 0.00 0.01 0.01 0.02 0.04 0.07 0.05 0.01 0.02 0.03 0.05 0.06 0.06 0.09

GFSNIL_prec_precacc6_105.txt.gz
Total_Precipitation_Accumulation
0.00 0.00 0.00 0.00 0.00 0.00 0.00 0.00 0.01 0.03 0.05 0.02 0.01 0.02 0.03 0.12 0.29 0.30 0.17 0.07 0.04 0.02
0.00 0.00 0.00 0.00 0.00 0.00 0.00 0.00 0.00 0.01 0.04 0.03 0.01 0.01 0.01 0.03 0.09 0.21 0.26 0.17 0.08 0.06
0.00 0.00 0.00 0.00 0.00 0.00 0.00 0.00 0.00 0.00 0.01 0.02 0.01 0.02 0.01 0.02 0.03 0.05 0.10 0.12 0.12 0.10
0.00 0.00 0.00 0.00 0.00 0.00 0.00 0.00 0.00 0.00 0.01 0.00 0.00 0.00 0.01 0.01 0.01 0.03 0.04 0.05 0.09 0.13
0.00 0.00 0.00 0.00 0.00 0.00 0.00 0.00 0.00 0.00 0.00 0.00 0.00 0.00 0.00 0.01 0.00 0.01 0.00 0.01 0.01 0.03
0.01 0.02 0.04 0.01 0.00 0.00 0.00 0.00 0.00 0.00 0.00 0.00 0.00 0.00 0.00 0.00 0.00 0.00 0.00 0.00 0.00 0.00
0.09 0.06 0.03 0.00 0.00 0.00 0.00 0.00 0.00 0.00 0.00 0.00 0.00 0.00 0.00 0.00 0.00 0.00 0.00 0.00 0.00 0.00
0.11 0.06 0.02 0.00 0.00 0.00 0.00 0.00 0.00 0.00 0.00 0.00 0.00 0.00 0.00 0.00 0.00 0.00 0.00 0.00 0.00 0.00
0.06 0.05 0.02 0.00 0.00 0.00 0.00 0.00 0.00 0.00 0.00 0.01 0.01 0.00 0.00 0.00 0.00 0.00 0.00 0.00 0.00 0.00
0.06 0.06 0.06 0.05 0.02 0.01 0.00 0.01 0.00 0.00 0.00 0.01 0.00 0.00 0.00 0.00 0.00 0.01 0.01 0.01 0.00 0.01
0.05 0.04 0.04 0.04 0.05 0.06 0.02 0.01 0.01 0.01 0.01 0.02 0.02 0.02 0.01 0.01 0.00 0.00 0.02 0.04 0.02 0.03
0.14 0.07 0.05 0.07 0.05 0.05 0.05 0.04 0.03 0.03 0.05 0.06 0.04 0.06 0.02 0.02 0.00 0.02 0.05 0.07 0.08 0.05
0.18 0.20 0.17 0.16 0.16 0.16 0.18 0.13 0.07 0.03 0.04 0.09 0.03 0.06 0.02 0.01 0.01 0.03 0.05 0.04 0.05 0.12
0.07 0.10 0.12 0.13 0.16 0.17 0.16 0.16 0.15 0.10 0.07 0.05 0.05 0.08 0.07 0.04 0.04 0.07 0.10 0.08 0.06 0.09

GFSNIL_prec_precacc6_108.txt.gz
Total_Precipitation_Accumulation
0.00 0.00 0.00 0.00 0.00 0.00 0.00 0.00 0.00 0.01 0.04 0.02 0.01 0.01 0.01 0.06 0.13 0.19 0.09 0.05 0.04 0.02
0.00 0.00 0.00 0.00 0.00 0.00 0.00 0.00 0.00 0.01 0.03 0.03 0.01 0.00 0.00 0.02 0.07 0.19 0.27 0.22 0.13 0.08
0.00 0.00 0.00 0.00 0.00 0.00 0.00 0.00 0.00 0.00 0.02 0.03 0.01 0.01 0.00 0.01 0.01 0.05 0.12 0.24 0.29 0.18
0.00 0.00 0.00 0.00 0.00 0.00 0.00 0.00 0.00 0.00 0.01 0.01 0.01 0.00 0.01 0.00 0.00 0.02 0.03 0.05 0.10 0.15
0.01 0.01 0.01 0.01 0.00 0.00 0.00 0.00 0.00 0.00 0.00 0.00 0.00 0.00 0.00 0.00 0.00 0.01 0.00 0.00 0.01 0.02
0.02 0.06 0.06 0.05 0.01 0.01 0.00 0.00 0.00 0.00 0.00 0.00 0.00 0.00 0.00 0.01 0.01 0.00 0.00 0.00 0.00 0.00
0.11 0.09 0.08 0.08 0.00 0.02 0.00 0.00 0.00 0.00 0.00 0.00 0.00 0.00 0.00 0.00 0.00 0.00 0.00 0.00 0.00 0.00
0.13 0.09 0.08 0.06 0.03 0.02 0.00 0.00 0.00 0.00 0.00 0.00 0.00 0.00 0.00 0.00 0.00 0.00 0.00 0.00 0.00 0.00
0.11 0.08 0.08 0.05 0.03 0.01 0.00 0.00 0.00 0.00 0.00 0.01 0.00 0.01 0.00 0.00 0.00 0.00 0.00 0.00 0.00 0.00
0.12 0.07 0.06 0.04 0.02 0.01 0.01 0.01 0.01 0.01 0.01 0.01 0.00 0.01 0.00 0.00 0.01 0.03 0.03 0.02 0.02 0.02
0.12 0.11 0.08 0.04 0.03 0.03 0.02 0.01 0.01 0.00 0.01 0.00 0.00 0.01 0.01 0.01 0.00 0.00 0.03 0.05 0.02 0.03
0.24 0.18 0.16 0.13 0.08 0.06 0.07 0.04 0.02 0.02 0.04 0.03 0.02 0.04 0.01 0.01 0.00 0.02 0.04 0.02 0.01 0.02
0.59 0.51 0.49 0.44 0.34 0.28 0.29 0.27 0.19 0.11 0.07 0.09 0.03 0.05 0.02 0.01 0.01 0.02 0.03 0.03 0.03 0.08
0.52 0.55 0.51 0.57 0.49 0.44 0.49 0.50 0.51 0.50 0.34 0.23 0.19 0.16 0.16 0.17 0.15 0.17 0.19 0.16 0.15 0.18

GFSNIL_prec_precacc6_111.txt.gz
Total_Precipitation_Accumulation
0.01 0.01 0.00 0.00 0.00 0.00 0.00 0.00 0.00 0.01 0.01 0.01 0.00 0.00 0.00 0.01 0.02 0.03 0.03 0.03 0.03 0.05
0.04 0.03 0.01 0.00 0.00 0.00 0.00 0.00 0.00 0.00 0.01 0.01 0.00 0.00 0.00 0.00 0.01 0.02 0.06 0.08 0.07 0.05
0.05 0.02 0.03 0.00 0.00 0.00 0.00 0.00 0.00 0.00 0.01 0.02 0.00 0.00 0.00 0.00 0.00 0.03 0.07 0.18 0.24 0.16
0.04 0.05 0.08 0.03 0.00 0.00 0.00 0.00 0.00 0.00 0.00 0.01 0.01 0.00 0.00 0.00 0.00 0.01 0.01 0.04 0.12 0.13
0.12 0.17 0.14 0.05 0.00 0.00 0.02 0.03 0.00 0.00 0.00 0.01 0.01 0.01 0.01 0.00 0.00 0.00 0.01 0.01 0.00 0.01
0.17 0.23 0.18 0.10 0.02 0.06 0.08 0.04 0.00 0.00 0.00 0.00 0.00 0.01 0.01 0.01 0.01 0.00 0.00 0.00 0.00 0.00
0.12 0.18 0.20 0.14 0.04 0.09 0.09 0.05 0.01 0.00 0.00 0.00 0.00 0.01 0.01 0.01 0.02 0.01 0.01 0.01 0.00 0.00
0.09 0.17 0.22 0.11 0.07 0.07 0.06 0.04 0.01 0.01 0.01 0.01 0.00 0.01 0.01 0.01 0.01 0.01 0.01 0.01 0.01 0.00
0.17 0.24 0.28 0.14 0.10 0.04 0.02 0.02 0.01 0.01 0.01 0.01 0.00 0.02 0.01 0.01 0.01 0.01 0.00 0.00 0.00 0.00
0.18 0.19 0.22 0.14 0.09 0.05 0.02 0.01 0.02 0.01 0.01 0.01 0.00 0.01 0.01 0.01 0.01 0.03 0.03 0.01 0.02 0.02
0.20 0.29 0.27 0.16 0.10 0.07 0.05 0.02 0.01 0.01 0.01 0.01 0.02 0.02 0.01 0.01 0.01 0.02 0.02 0.04 0.03 0.04
0.31 0.35 0.38 0.28 0.17 0.13 0.13 0.09 0.04 0.03 0.02 0.01 0.02 0.03 0.02 0.01 0.00 0.01 0.01 0.02 0.02 0.03
0.66 0.61 0.55 0.51 0.48 0.38 0.32 0.35 0.27 0.20 0.13 0.10 0.05 0.10 0.05 0.03 0.01 0.01 0.02 0.02 0.02 0.05
0.77 0.86 0.76 0.78 0.78 0.77 0.72 0.70 0.64 0.61 0.43 0.35 0.33 0.29 0.29 0.25 0.18 0.17 0.16 0.16 0.16 0.18

GFSNIL_prec_precacc6_114.txt.gz
Total_Precipitation_Accumulation
0.01 0.03 0.01 0.00 0.00 0.00 0.01 0.01 0.00 0.00 0.00 0.00 0.00 0.00 0.00 0.00 0.00 0.00 0.00 0.01 0.02 0.07
0.04 0.05 0.02 0.01 0.00 0.01 0.01 0.00 0.00 0.00 0.00 0.00 0.00 0.00 0.00 0.00 0.00 0.00 0.00 0.00 0.00 0.00
0.05 0.03 0.06 0.02 0.00 0.01 0.01 0.00 0.00 0.00 0.00 0.00 0.00 0.00 0.00 0.00 0.00 0.00 0.00 0.00 0.01 0.02
0.06 0.09 0.14 0.08 0.02 0.01 0.02 0.02 0.02 0.00 0.00 0.01 0.01 0.00 0.00 0.00 0.00 0.00 0.01 0.01 0.05 0.07
0.19 0.26 0.22 0.13 0.05 0.03 0.04 0.06 0.02 0.01 0.00 0.01 0.01 0.01 0.00 0.01 0.00 0.00 0.01 0.01 0.00 0.02
0.24 0.31 0.33 0.24 0.11 0.11 0.15 0.08 0.03 0.02 0.02 0.00 0.01 0.01 0.01 0.01 0.01 0.00 0.00 0.00 0.00 0.00
0.16 0.28 0.32 0.25 0.18 0.19 0.17 0.09 0.04 0.01 0.01 0.01 0.01 0.02 0.02 0.03 0.03 0.01 0.00 0.01 0.01 0.01
0.08 0.20 0.28 0.22 0.18 0.16 0.14 0.10 0.06 0.03 0.02 0.01 0.01 0.03 0.03 0.03 0.02 0.02 0.01 0.01 0.01 0.01
0.12 0.21 0.31 0.23 0.25 0.18 0.12 0.06 0.04 0.04 0.02 0.01 0.01 0.03 0.03 0.03 0.02 0.02 0.01 0.01 0.01 0.01
0.13 0.23 0.29 0.27 0.24 0.21 0.14 0.06 0.03 0.03 0.02 0.00 0.01 0.02 0.02 0.02 0.02 0.02 0.01 0.01 0.01 0.01
0.17 0.30 0.44 0.38 0.31 0.27 0.20 0.07 0.03 0.02 0.01 0.01 0.03 0.03 0.02 0.02 0.01 0.03 0.02 0.03 0.03 0.02
0.22 0.33 0.39 0.47 0.44 0.41 0.38 0.30 0.14 0.06 0.03 0.02 0.04 0.07 0.06 0.03 0.00 0.02 0.04 0.03 0.03 0.04
0.41 0.45 0.48 0.47 0.63 0.68 0.51 0.43 0.35 0.24 0.18 0.16 0.08 0.15 0.15 0.12 0.03 0.01 0.02 0.04 0.04 0.07
0.44 0.55 0.56 0.60 0.69 0.88 0.94 0.80 0.64 0.52 0.45 0.42 0.45 0.45 0.43 0.38 0.25 0.18 0.11 0.08 0.07 0.08

GFSNIL_prec_precacc6_117.txt.gz
Total_Precipitation_Accumulation
0.02 0.04 0.03 0.01 0.02 0.01 0.01 0.02 0.00 0.01 0.01 0.00 0.00 0.00 0.00 0.00 0.00 0.00 0.00 0.00 0.00 0.03
0.00 0.03 0.03 0.03 0.02 0.02 0.02 0.02 0.01 0.00 0.00 0.01 0.01 0.00 0.00 0.01 0.01 0.01 0.00 0.00 0.00 0.00
0.00 0.02 0.05 0.06 0.01 0.01 0.04 0.05 0.02 0.01 0.00 0.01 0.00 0.00 0.00 0.00 0.01 0.01 0.01 0.00 0.00 0.00
0.02 0.05 0.07 0.07 0.05 0.06 0.09 0.10 0.07 0.02 0.01 0.00 0.00 0.00 0.00 0.01 0.01 0.01 0.00 0.00 0.00 0.00
0.10 0.13 0.12 0.13 0.10 0.09 0.10 0.12 0.08 0.06 0.03 0.00 0.00 0.00 0.00 0.01 0.01 0.01 0.00 0.00 0.00 0.01
0.11 0.16 0.21 0.24 0.17 0.13 0.15 0.17 0.14 0.10 0.07 0.03 0.01 0.01 0.01 0.01 0.01 0.01 0.01 0.01 0.01 0.00
0.10 0.17 0.22 0.29 0.26 0.22 0.21 0.19 0.17 0.12 0.10 0.10 0.04 0.02 0.02 0.03 0.02 0.01 0.01 0.01 0.01 0.02
0.03 0.08 0.16 0.27 0.25 0.20 0.21 0.19 0.17 0.11 0.06 0.03 0.02 0.03 0.04 0.03 0.02 0.02 0.02 0.01 0.01 0.01
0.03 0.03 0.10 0.16 0.22 0.20 0.19 0.20 0.21 0.16 0.10 0.03 0.02 0.03 0.03 0.03 0.03 0.03 0.02 0.02 0.02 0.01
0.03 0.10 0.12 0.20 0.28 0.29 0.29 0.30 0.25 0.18 0.10 0.01 0.01 0.02 0.02 0.02 0.01 0.02 0.02 0.03 0.03 0.02
0.07 0.12 0.25 0.28 0.29 0.40 0.43 0.34 0.33 0.27 0.11 0.04 0.02 0.02 0.02 0.03 0.00 0.01 0.02 0.02 0.02 0.02
0.14 0.17 0.17 0.35 0.48 0.47 0.47 0.56 0.46 0.25 0.19 0.07 0.04 0.07 0.09 0.07 0.03 0.02 0.03 0.02 0.02 0.03
0.28 0.27 0.41 0.47 0.53 0.76 0.80 0.65 0.67 0.63 0.45 0.29 0.12 0.16 0.19 0.18 0.09 0.07 0.07 0.07 0.05 0.08
0.16 0.21 0.30 0.42 0.48 0.62 0.84 0.93 0.78 0.64 0.55 0.45 0.43 0.41 0.42 0.48 0.42 0.36 0.20 0.13 0.11 0.10

GFSNIL_prec_precacc6_120.txt.gz
Total_Precipitation_Accumulation
0.03 0.02 0.02 0.00 0.04 0.04 0.12 0.10 0.04 0.03 0.02 0.01 0.02 0.02 0.00 0.00 0.01 0.01 0.01 0.01 0.01 0.01
0.01 0.01 0.02 0.04 0.07 0.03 0.04 0.05 0.05 0.04 0.02 0.04 0.05 0.04 0.02 0.01 0.01 0.01 0.01 0.00 0.00 0.00
0.00 0.00 0.01 0.05 0.02 0.03 0.10 0.12 0.06 0.05 0.02 0.03 0.03 0.03 0.02 0.01 0.01 0.01 0.01 0.01 0.00 0.00
0.00 0.00 0.01 0.03 0.06 0.10 0.13 0.13 0.11 0.09 0.05 0.01 0.02 0.02 0.01 0.01 0.01 0.01 0.01 0.01 0.01 0.00
0.02 0.02 0.03 0.05 0.07 0.09 0.09 0.13 0.13 0.13 0.06 0.01 0.02 0.02 0.01 0.01 0.01 0.01 0.00 0.00 0.00 0.00
0.03 0.04 0.05 0.08 0.09 0.11 0.11 0.16 0.19 0.14 0.09 0.07 0.05 0.04 0.02 0.01 0.01 0.01 0.01 0.01 0.00 0.00
0.03 0.06 0.07 0.12 0.13 0.14 0.16 0.19 0.20 0.20 0.17 0.18 0.11 0.06 0.04 0.02 0.02 0.01 0.01 0.01 0.01 0.02
0.01 0.02 0.06 0.14 0.15 0.16 0.19 0.22 0.20 0.16 0.13 0.13 0.11 0.08 0.05 0.02 0.01 0.02 0.01 0.01 0.01 0.01
0.01 0.01 0.01 0.02 0.04 0.06 0.11 0.19 0.28 0.34 0.32 0.21 0.14 0.12 0.07 0.04 0.02 0.01 0.02 0.02 0.02 0.01
0.00 0.00 0.01 0.03 0.11 0.12 0.17 0.27 0.26 0.25 0.30 0.44 0.47 0.40 0.23 0.10 0.03 0.02 0.02 0.03 0.03 0.02
0.02 0.02 0.02 0.04 0.07 0.20 0.28 0.33 0.40 0.45 0.33 0.22 0.24 0.29 0.17 0.12 0.03 0.01 0.02 0.04 0.04 0.03
0.05 0.03 0.03 0.09 0.19 0.17 0.22 0.40 0.55 0.57 0.58 0.46 0.27 0.20 0.21 0.17 0.07 0.04 0.02 0.02 0.04 0.04
0.06 0.10 0.16 0.23 0.20 0.35 0.51 0.46 0.51 0.63 0.63 0.62 0.50 0.46 0.41 0.28 0.16 0.12 0.08 0.06 0.05 0.08
0.04 0.07 0.11 0.17 0.25 0.25 0.33 0.56 0.58 0.57 0.53 0.48 0.48 0.51 0.56 0.62 0.52 0.44 0.29 0.20 0.17 0.17

GFSNIL_prec_precacc6_126.txt.gz
Total_Precipitation_Accumulation
0.03 0.03 0.03 0.03 0.05 0.07 0.10 0.04 0.09 0.08 0.15 0.15 0.09 0.02 0.03 0.05 0.03 0.01 0.00 0.00 0.00 0.01
0.04 0.04 0.04 0.03 0.05 0.05 0.05 0.11 0.13 0.07 0.08 0.15 0.11 0.06 0.05 0.05 0.05 0.03 0.02 0.01 0.01 0.01
0.01 0.00 0.01 0.01 0.03 0.03 0.04 0.09 0.09 0.05 0.08 0.07 0.07 0.06 0.05 0.03 0.03 0.02 0.04 0.03 0.02 0.01
0.00 0.00 0.00 0.00 0.00 0.01 0.02 0.09 0.09 0.10 0.10 0.05 0.04 0.05 0.06 0.03 0.02 0.02 0.04 0.06 0.04 0.04
0.00 0.00 0.00 0.00 0.00 0.01 0.01 0.01 0.06 0.12 0.13 0.12 0.08 0.06 0.05 0.03 0.02 0.03 0.06 0.08 0.06 0.03
0.01 0.00 0.00 0.01 0.01 0.02 0.02 0.03 0.03 0.04 0.06 0.08 0.09 0.09 0.08 0.12 0.09 0.08 0.08 0.07 0.05 0.04
0.00 0.00 0.00 0.00 0.01 0.02 0.03 0.04 0.05 0.05 0.06 0.06 0.08 0.08 0.09 0.09 0.07 0.08 0.08 0.07 0.05 0.03
0.00 0.00 0.00 0.00 0.01 0.01 0.02 0.03 0.03 0.05 0.07 0.09 0.11 0.13 0.09 0.05 0.04 0.06 0.07 0.07 0.07 0.04
0.00 0.00 0.00 0.00 0.00 0.00 0.01 0.02 0.05 0.10 0.18 0.22 0.16 0.17 0.07 0.06 0.03 0.03 0.05 0.05 0.04 0.06
0.00 0.00 0.00 0.00 0.00 0.00 0.00 0.00 0.01 0.04 0.12 0.24 0.35 0.47 0.55 0.53 0.41 0.35 0.36 0.34 0.30 0.21
0.00 0.00 0.00 0.00 0.00 0.00 0.00 0.00 0.00 0.00 0.02 0.03 0.05 0.14 0.37 0.59 0.80 0.91 0.77 0.68 0.62 0.64
0.00 0.00 0.00 0.00 0.00 0.00 0.00 0.00 0.00 0.00 0.00 0.01 0.05 0.11 0.12 0.22 0.27 0.33 0.35 0.31 0.26 0.24
0.00 0.00 0.00 0.00 0.00 0.00 0.00 0.00 0.00 0.00 0.01 0.03 0.09 0.20 0.26 0.38 0.49 0.52 0.48 0.36 0.26 0.25
0.00 0.00 0.00 0.00 0.00 0.00 0.00 0.00 0.00 0.00 0.00 0.01 0.02 0.04 0.09 0.20 0.32 0.37 0.40 0.40 0.38 0.37

GFSNIL_prec_precacc6_132.txt.gz
Total_Precipitation_Accumulation
0.12 0.18 0.47 0.53 0.89 1.23 1.33 1.08 1.22 0.54 0.09 0.08 0.09 0.10 0.09 0.03 0.03 0.01 0.03 0.02 0.02 0.04
0.12 0.08 0.14 0.23 0.40 0.64 0.56 0.39 0.33 0.18 0.08 0.10 0.12 0.09 0.07 0.08 0.05 0.06 0.04 0.02 0.04 0.05
0.18 0.12 0.10 0.08 0.11 0.23 0.46 0.46 0.23 0.12 0.08 0.10 0.10 0.07 0.05 0.06 0.06 0.10 0.07 0.06 0.12 0.15
0.08 0.13 0.09 0.11 0.08 0.11 0.11 0.11 0.06 0.04 0.02 0.05 0.06 0.06 0.04 0.05 0.06 0.10 0.10 0.08 0.07 0.10
0.01 0.03 0.07 0.06 0.07 0.03 0.03 0.02 0.01 0.01 0.03 0.04 0.03 0.04 0.05 0.05 0.06 0.07 0.07 0.08 0.09 0.07
0.03 0.02 0.02 0.02 0.02 0.03 0.02 0.01 0.01 0.01 0.01 0.02 0.03 0.04 0.05 0.07 0.06 0.08 0.10 0.13 0.16 0.15
0.06 0.04 0.03 0.02 0.02 0.01 0.01 0.01 0.02 0.02 0.02 0.03 0.02 0.02 0.02 0.03 0.04 0.07 0.11 0.15 0.16 0.17
0.03 0.02 0.02 0.01 0.02 0.01 0.02 0.04 0.05 0.06 0.07 0.08 0.07 0.08 0.06 0.05 0.06 0.08 0.11 0.16 0.21 0.25
0.01 0.00 0.00 0.00 0.00 0.01 0.00 0.01 0.02 0.03 0.07 0.09 0.10 0.16 0.13 0.17 0.18 0.17 0.14 0.13 0.13 0.17
0.00 0.00 0.00 0.00 0.00 0.00 0.00 0.00 0.00 0.00 0.00 0.02 0.02 0.02 0.02 0.03 0.04 0.08 0.12 0.16 0.18 0.16
0.00 0.00 0.00 0.00 0.00 0.00 0.00 0.00 0.00 0.00 0.00 0.00 0.00 0.00 0.01 0.03 0.04 0.05 0.08 0.07 0.08 0.09
0.00 0.00 0.00 0.00 0.00 0.00 0.00 0.00 0.00 0.00 0.00 0.00 0.00 0.00 0.00 0.00 0.00 0.00 0.03 0.04 0.06 0.09
0.00 0.00 0.00 0.00 0.00 0.00 0.00 0.00 0.00 0.01 0.01 0.00 0.00 0.00 0.00 0.00 0.00 0.00 0.00 0.01 0.03 0.06
0.00 0.00 0.00 0.00 0.00 0.00 0.00 0.00 0.00 0.00 0.01 0.00 0.00 0.00 0.00 0.00 0.00 0.00 0.00 0.00 0.02 0.04

GFSNIL_prec_precacc6_138.txt.gz
Total_Precipitation_Accumulation
0.06 0.04 0.04 0.14 0.12 0.63 1.12 1.10 1.22 2.22 2.75 2.18 1.64 1.60 0.69 0.29 0.15 0.08 0.12 0.11 0.04 0.02
0.11 0.10 0.08 0.10 0.29 0.32 0.36 0.72 1.08 1.41 1.79 2.31 2.46 1.98 1.36 0.86 0.66 0.56 0.40 0.26 0.14 0.08
0.22 0.17 0.18 0.11 0.19 0.32 0.48 0.49 0.62 0.84 0.94 0.89 0.93 1.11 1.36 1.40 1.17 1.16 0.93 0.64 0.55 0.28
0.41 0.52 0.34 0.22 0.17 0.21 0.28 0.43 0.58 0.58 0.62 0.66 0.58 0.56 0.62 0.61 0.79 1.12 1.35 1.13 0.83 0.39
0.86 1.01 0.50 0.27 0.14 0.09 0.16 0.26 0.24 0.22 0.30 0.40 0.43 0.46 0.43 0.54 0.50 0.42 0.46 0.54 0.41 0.17
0.59 0.50 0.60 0.28 0.17 0.04 0.10 0.20 0.15 0.11 0.15 0.21 0.23 0.25 0.31 0.34 0.29 0.35 0.23 0.18 0.12 0.07
0.84 0.19 0.10 0.16 0.10 0.10 0.03 0.08 0.12 0.06 0.06 0.07 0.12 0.18 0.22 0.20 0.12 0.08 0.08 0.06 0.05 0.04
0.27 0.15 0.05 0.01 0.00 0.01 0.01 0.00 0.01 0.03 0.03 0.03 0.03 0.03 0.04 0.05 0.03 0.01 0.00 0.01 0.01 0.03
0.06 0.04 0.02 0.01 0.00 0.00 0.00 0.00 0.00 0.00 0.00 0.00 0.00 0.01 0.02 0.02 0.03 0.03 0.03 0.03 0.06 0.06
0.02 0.02 0.02 0.00 0.00 0.00 0.00 0.00 0.00 0.00 0.00 0.00 0.00 0.00 0.00 0.01 0.01 0.02 0.03 0.03 0.02 0.03
0.00 0.00 0.00 0.00 0.00 0.00 0.00 0.00 0.00 0.00 0.00 0.00 0.00 0.00 0.00 0.00 0.00 0.00 0.00 0.00 0.00 0.00
0.00 0.00 0.00 0.00 0.00 0.00 0.00 0.00 0.00 0.00 0.00 0.00 0.00 0.00 0.00 0.00 0.00 0.00 0.00 0.00 0.00 0.00
0.00 0.00 0.00 0.00 0.00 0.00 0.00 0.00 0.00 0.00 0.00 0.00 0.00 0.00 0.00 0.00 0.00 0.00 0.00 0.00 0.00 0.00
0.00 0.00 0.00 0.00 0.00 0.00 0.00 0.00 0.00 0.00 0.00 0.00 0.00 0.00 0.00 0.00 0.00 0.00 0.00 0.00 0.00 0.00

GFSNIL_prec_precacc6_141.txt.gz
Total_Precipitation_Accumulation
0.01 0.01 0.02 0.03 0.02 0.04 0.09 0.08 0.11 0.34 1.30 1.39 1.35 1.68 1.62 1.00 0.84 0.86 0.45 0.29 0.28 0.20
0.03 0.02 0.04 0.04 0.03 0.04 0.08 0.13 0.15 0.16 0.77 1.25 1.27 1.26 1.45 1.31 0.91 0.89 0.98 0.69 0.37 0.30
0.07 0.05 0.13 0.11 0.13 0.09 0.11 0.12 0.13 0.27 0.49 0.47 0.47 0.59 1.28 1.62 1.44 1.30 1.20 0.99 0.88 0.62
0.21 0.26 0.27 0.27 0.27 0.23 0.19 0.20 0.21 0.18 0.30 0.38 0.39 0.48 0.71 0.76 1.01 1.32 1.45 1.23 1.08 1.05
0.82 1.07 0.54 0.49 0.38 0.40 0.39 0.29 0.18 0.12 0.11 0.25 0.40 0.51 0.57 0.69 0.65 0.62 0.66 0.75 0.78 0.81
0.75 1.03 1.24 0.82 0.66 0.28 0.23 0.21 0.23 0.07 0.08 0.14 0.21 0.32 0.39 0.43 0.50 0.57 0.63 0.68 0.61 0.53
0.85 0.32 0.47 0.89 0.57 0.24 0.11 0.12 0.22 0.10 0.07 0.05 0.09 0.20 0.31 0.36 0.31 0.28 0.31 0.30 0.31 0.27
0.26 0.24 0.08 0.07 0.19 0.17 0.04 0.04 0.16 0.03 0.02 0.02 0.03 0.03 0.05 0.09 0.14 0.14 0.11 0.08 0.07 0.05
0.03 0.05 0.06 0.03 0.01 0.01 0.00 0.00 0.00 0.00 0.00 0.00 0.00 0.00 0.00 0.00 0.00 0.00 0.00 0.00 0.00 0.00
0.01 0.01 0.01 0.01 0.01 0.01 0.00 0.00 0.00 0.00 0.00 0.00 0.00 0.00 0.00 0.00 0.00 0.00 0.00 0.00 0.00 0.00
0.00 0.00 0.00 0.00 0.00 0.00 0.00 0.00 0.00 0.00 0.00 0.00 0.00 0.00 0.00 0.00 0.00 0.00 0.00 0.00 0.00 0.00
0.00 0.00 0.00 0.00 0.00 0.00 0.00 0.00 0.00 0.00 0.00 0.00 0.00 0.00 0.00 0.00 0.00 0.00 0.00 0.00 0.00 0.00
0.00 0.00 0.00 0.00 0.00 0.00 0.00 0.00 0.00 0.00 0.00 0.00 0.00 0.00 0.00 0.00 0.00 0.00 0.00 0.00 0.00 0.00
0.00 0.00 0.00 0.00 0.00 0.00 0.00 0.00 0.00 0.00 0.00 0.00 0.00 0.00 0.00 0.00 0.00 0.00 0.00 0.00 0.00 0.00

GFSNIL_prec_precacc6_144.txt.gz
Total_Precipitation_Accumulation
0.01 0.01 0.01 0.01 0.01 0.02 0.04 0.05 0.03 0.02 0.02 0.04 0.11 0.36 1.17 0.98 0.98 1.49 1.65 1.27 0.78 0.47
0.02 0.02 0.02 0.01 0.01 0.02 0.06 0.07 0.09 0.07 0.06 0.08 0.10 0.14 0.59 0.84 0.75 0.86 1.20 1.39 1.57 1.54
0.07 0.05 0.06 0.04 0.03 0.05 0.09 0.10 0.07 0.12 0.10 0.09 0.14 0.14 0.25 0.42 0.47 0.37 0.58 0.74 0.85 1.27
0.09 0.08 0.08 0.09 0.14 0.18 0.20 0.24 0.18 0.13 0.10 0.10 0.06 0.12 0.23 0.29 0.32 0.27 0.20 0.33 0.62 1.23
0.24 0.26 0.25 0.38 0.39 0.51 0.49 0.34 0.26 0.26 0.21 0.16 0.16 0.16 0.21 0.28 0.32 0.34 0.36 0.37 0.52 0.84
0.29 0.64 0.84 0.98 0.96 0.79 0.66 0.53 0.60 0.41 0.31 0.17 0.13 0.15 0.14 0.17 0.26 0.27 0.47 0.59 0.60 0.60
0.19 0.16 0.42 0.89 0.73 0.56 0.49 0.58 0.85 0.82 0.69 0.43 0.16 0.10 0.13 0.18 0.24 0.29 0.34 0.36 0.41 0.46
0.08 0.12 0.04 0.07 0.25 0.23 0.14 0.26 0.74 0.62 0.47 0.34 0.16 0.05 0.02 0.04 0.13 0.21 0.19 0.13 0.12 0.12
0.00 0.03 0.05 0.03 0.03 0.03 0.00 0.01 0.05 0.03 0.03 0.06 0.02 0.00 0.00 0.00 0.00 0.00 0.00 0.00 0.00 0.00
0.00 0.00 0.01 0.01 0.01 0.02 0.02 0.00 0.00 0.00 0.00 0.00 0.00 0.00 0.00 0.00 0.00 0.00 0.00 0.00 0.00 0.00
0.00 0.00 0.00 0.00 0.00 0.00 0.00 0.00 0.00 0.00 0.00 0.00 0.00 0.00 0.00 0.00 0.00 0.00 0.00 0.00 0.00 0.00
0.00 0.00 0.00 0.00 0.00 0.00 0.00 0.00 0.00 0.00 0.00 0.00 0.00 0.00 0.00 0.00 0.00 0.00 0.00 0.00 0.00 0.00
0.00 0.00 0.00 0.00 0.00 0.00 0.00 0.00 0.00 0.00 0.00 0.00 0.00 0.00 0.00 0.00 0.00 0.00 0.00 0.00 0.00 0.00
0.00 0.00 0.00 0.00 0.00 0.00 0.00 0.00 0.00 0.00 0.00 0.00 0.00 0.00 0.00 0.00 0.00 0.00 0.00 0.00 0.00 0.00

GFSNIL_prec_precacc6_147.txt.gz
Total_Precipitation_Accumulation
0.01 0.02 0.02 0.01 0.01 0.01 0.01 0.01 0.01 0.01 0.01 0.01 0.02 0.02 0.02 0.14 0.24 0.69 1.27 1.12 0.84 0.53
0.02 0.02 0.02 0.02 0.01 0.01 0.01 0.01 0.03 0.05 0.05 0.05 0.04 0.04 0.03 0.06 0.17 0.25 0.52 0.96 1.39 1.42
0.04 0.03 0.03 0.03 0.02 0.02 0.03 0.03 0.02 0.11 0.12 0.10 0.10 0.07 0.11 0.06 0.05 0.07 0.14 0.29 0.47 0.99
0.06 0.05 0.05 0.04 0.04 0.08 0.11 0.12 0.09 0.09 0.11 0.18 0.14 0.18 0.13 0.12 0.11 0.05 0.05 0.14 0.28 0.55
0.10 0.08 0.10 0.16 0.18 0.22 0.27 0.28 0.21 0.22 0.23 0.23 0.24 0.23 0.22 0.19 0.22 0.18 0.18 0.19 0.16 0.21
0.03 0.09 0.19 0.35 0.38 0.58 0.56 0.66 0.74 0.66 0.51 0.40 0.35 0.28 0.20 0.15 0.14 0.15 0.23 0.19 0.27 0.35
0.01 0.01 0.05 0.15 0.20 0.37 0.47 0.68 1.00 1.29 1.33 1.09 0.77 0.68 0.44 0.24 0.37 0.29 0.35 0.27 0.17 0.32
0.00 0.01 0.00 0.01 0.05 0.06 0.12 0.27 0.72 0.89 0.96 0.79 0.58 0.49 0.19 0.15 0.25 0.40 0.20 0.10 0.07 0.08
0.00 0.00 0.01 0.01 0.02 0.01 0.00 0.02 0.07 0.05 0.09 0.26 0.20 0.11 0.04 0.02 0.04 0.04 0.02 0.00 0.00 0.00
0.00 0.00 0.00 0.00 0.00 0.01 0.01 0.00 0.00 0.00 0.00 0.00 0.01 0.01 0.02 0.00 0.00 0.00 0.00 0.00 0.00 0.00
0.00 0.00 0.00 0.00 0.00 0.00 0.00 0.00 0.00 0.00 0.00 0.00 0.00 0.00 0.00 0.00 0.00 0.00 0.00 0.00 0.00 0.00
0.00 0.00 0.00 0.00 0.00 0.00 0.00 0.00 0.00 0.00 0.00 0.00 0.00 0.00 0.00 0.00 0.00 0.00 0.00 0.00 0.00 0.00
0.00 0.00 0.00 0.00 0.00 0.00 0.00 0.00 0.00 0.00 0.00 0.00 0.00 0.00 0.00 0.00 0.00 0.00 0.00 0.00 0.00 0.00
0.00 0.00 0.00 0.00 0.00 0.00 0.00 0.00 0.00 0.00 0.00 0.00 0.00 0.00 0.00 0.00 0.00 0.00 0.00 0.00 0.00 0.00

GFSNIL_prec_precacc6_150.txt.gz
Total_Precipitation_Accumulation
0.01 0.01 0.01 0.01 0.02 0.02 0.02 0.01 0.00 0.00 0.00 0.00 0.01 0.02 0.03 0.03 0.03 0.04 0.05 0.13 0.35 0.31
0.01 0.01 0.02 0.02 0.02 0.02 0.01 0.01 0.01 0.01 0.01 0.02 0.01 0.04 0.04 0.04 0.04 0.03 0.05 0.07 0.16 0.22
0.01 0.00 0.01 0.01 0.02 0.02 0.02 0.01 0.01 0.02 0.03 0.03 0.05 0.07 0.11 0.10 0.08 0.06 0.01 0.02 0.08 0.23
0.00 0.00 0.01 0.02 0.02 0.04 0.04 0.03 0.02 0.01 0.04 0.13 0.12 0.20 0.20 0.22 0.15 0.11 0.05 0.02 0.06 0.15
0.00 0.01 0.02 0.06 0.07 0.07 0.12 0.12 0.09 0.06 0.08 0.11 0.19 0.31 0.35 0.24 0.22 0.15 0.11 0.10 0.12 0.12
0.00 0.00 0.00 0.03 0.04 0.07 0.13 0.22 0.28 0.32 0.29 0.33 0.47 0.48 0.67 0.40 0.19 0.16 0.23 0.18 0.28 0.37
0.00 0.00 0.00 0.00 0.00 0.02 0.09 0.23 0.36 0.60 0.78 0.80 0.73 0.79 0.69 0.57 0.61 0.46 0.55 0.43 0.23 0.34
0.00 0.00 0.00 0.00 0.00 0.00 0.00 0.06 0.16 0.32 0.57 0.56 0.52 0.60 0.42 0.29 0.59 0.58 0.47 0.66 0.41 0.30
0.00 0.00 0.00 0.00 0.00 0.00 0.00 0.00 0.02 0.02 0.07 0.27 0.26 0.18 0.07 0.05 0.17 0.25 0.17 0.14 0.11 0.09
0.00 0.00 0.00 0.00 0.00 0.00 0.00 0.00 0.00 0.00 0.00 0.01 0.04 0.03 0.04 0.01 0.02 0.04 0.06 0.04 0.02 0.01
0.00 0.00 0.00 0.00 0.00 0.00 0.00 0.00 0.00 0.00 0.00 0.00 0.00 0.00 0.00 0.00 0.00 0.00 0.00 0.00 0.00 0.00
0.00 0.00 0.00 0.00 0.00 0.00 0.00 0.00 0.00 0.00 0.00 0.00 0.00 0.00 0.00 0.00 0.00 0.00 0.00 0.00 0.00 0.00
0.00 0.00 0.00 0.00 0.00 0.00 0.00 0.00 0.00 0.00 0.00 0.00 0.00 0.00 0.00 0.00 0.00 0.00 0.00 0.00 0.00 0.00
0.00 0.00 0.00 0.00 0.00 0.00 0.00 0.00 0.00 0.00 0.00 0.00 0.00 0.00 0.00 0.00 0.00 0.00 0.00 0.00 0.00 0.00

GFSNIL_prec_precacc6_153.txt.gz
Total_Precipitation_Accumulation
0.00 0.00 0.00 0.01 0.01 0.02 0.02 0.02 0.01 0.01 0.01 0.00 0.00 0.00 0.01 0.02 0.03 0.03 0.04 0.04 0.04 0.08
0.00 0.00 0.00 0.01 0.01 0.02 0.02 0.03 0.02 0.01 0.01 0.00 0.00 0.00 0.01 0.02 0.02 0.03 0.06 0.09 0.12 0.14
0.00 0.00 0.00 0.00 0.01 0.01 0.01 0.01 0.02 0.01 0.01 0.01 0.01 0.01 0.01 0.05 0.05 0.05 0.03 0.03 0.07 0.13
0.00 0.00 0.00 0.00 0.01 0.01 0.02 0.02 0.03 0.02 0.03 0.04 0.03 0.05 0.10 0.20 0.13 0.10 0.09 0.04 0.06 0.07
0.00 0.00 0.00 0.00 0.00 0.01 0.03 0.05 0.05 0.03 0.03 0.05 0.07 0.14 0.18 0.16 0.29 0.23 0.14 0.18 0.08 0.09
0.00 0.00 0.00 0.00 0.00 0.00 0.01 0.02 0.01 0.02 0.03 0.08 0.24 0.31 0.55 0.36 0.17 0.19 0.30 0.25 0.16 0.15
0.00 0.00 0.00 0.00 0.00 0.00 0.01 0.02 0.02 0.04 0.09 0.11 0.11 0.19 0.30 0.41 0.39 0.37 0.48 0.50 0.24 0.31
0.00 0.00 0.00 0.00 0.00 0.00 0.00 0.00 0.02 0.04 0.08 0.11 0.12 0.18 0.25 0.17 0.41 0.32 0.43 0.75 0.55 0.39
0.00 0.00 0.00 0.00 0.00 0.00 0.00 0.00 0.00 0.00 0.02 0.07 0.08 0.09 0.04 0.04 0.17 0.26 0.22 0.25 0.21 0.19
0.00 0.00 0.00 0.00 0.00 0.00 0.00 0.00 0.00 0.00 0.00 0.00 0.03 0.03 0.03 0.01 0.03 0.05 0.09 0.09 0.07 0.06
0.00 0.00 0.00 0.00 0.00 0.00 0.00 0.00 0.00 0.00 0.00 0.00 0.00 0.00 0.01 0.01 0.00 0.00 0.00 0.01 0.01 0.01
0.00 0.00 0.00 0.00 0.00 0.00 0.00 0.00 0.00 0.00 0.00 0.00 0.00 0.00 0.00 0.00 0.00 0.00 0.00 0.00 0.00 0.00
0.00 0.00 0.00 0.00 0.00 0.00 0.00 0.00 0.00 0.00 0.00 0.00 0.00 0.00 0.00 0.00 0.00 0.00 0.00 0.00 0.00 0.00
0.00 0.00 0.00 0.00 0.00 0.00 0.00 0.00 0.00 0.00 0.00 0.00 0.00 0.00 0.00 0.00 0.00 0.00 0.00 0.00 0.00 0.00